Chillicothe, MO

7:47 PM CST on February 19, 2017 (GMT -0600)
Chillicothe

Weather History for KCDJ - May, 2013

Change the Weather History Date:

Sunday, May 19, 2013

  Actual Average (KIRK) Record (KIRK)
Temperature  
Mean Temperature 74 °F -  
Max Temperature 84 °F 76 °F 90 °F (1944)
Min Temperature 64 °F 53 °F 37 °F (2002)
Cooling Degree Days 9    
Growing Degree Days 24 (Base 50)    
Moisture  
Dew Point 64 °F    
Average Humidity 72    
Maximum Humidity 90    
Minimum Humidity 49    
Precipitation  
Precipitation 0.82 in - - ()
Sea Level Pressure  
Sea Level Pressure 29.69 in    
Wind  
Wind Speed 10 mph (SSE)    
Max Wind Speed 23 mph    
Max Gust Speed 40 mph    
Averages and records for this station are not official NWS values.
T = Trace of Precipitation, MM = Missing Value Source: NWS Daily Summary

Daily Weather History Graph

Daily Weather History Graph

Search for Another Location

Airport or City:

Trip Planner

Search our weather history database for the weather conditions in past years. The results will help you decide how hot, cold, wet, or windy it might be!

Date:

Astronomy

May. 19, 2013 Rise Set
Actual Time 5:55 AM CDT 8:26 PM CDT
Civil Twilight 5:24 AM CDT 8:57 PM CDT
Nautical Twilight 4:46 AM CDT 9:35 PM CDT
Astronomical Twilight 4:03 AM CDT 10:18 PM CDT
Moon 2:31 PM CDT (5/19) 2:19 AM CDT (5/19)
Length of Visible Light 15h 32m
Length of Day
14h 30m
Waxing Gibbous, 65% of the Moon is Illuminated
May 19
Waxing Gibbous
May 24
Full
May 31
Last Quarter
Jun 8
New
Jun 16
First Quarter

Hourly Weather History & Observations

Time (CDT) Temp. Heat Index Dew Point Humidity Pressure Visibility Wind Dir Wind Speed Gust Speed Precip Events Conditions
12:52 AM 77.0 °F - 66.9 °F 71% 29.78 in - SSE 9.2 mph 17.3 mph N/A   Unknown
1:52 AM 75.9 °F - 68.0 °F 76% 29.78 in - South 8.1 mph - N/A   Unknown
2:52 AM 68.0 °F - 60.1 °F 76% 29.82 in - NW 6.9 mph 21.9 mph 0.02 in   Unknown
3:52 AM 66.0 °F - 62.1 °F 87% 29.79 in - East 4.6 mph - N/A   Unknown
4:52 AM 64.9 °F - 61.0 °F 87% 29.76 in - SE 3.5 mph - N/A   Unknown
5:52 AM 64.9 °F - 62.1 °F 90% 29.75 in - ESE 8.1 mph - 0.11 in   Unknown
6:52 AM 66.0 °F - 61.0 °F 84% 29.72 in - SSE 4.6 mph - N/A   Unknown
7:52 AM 68.0 °F - 62.1 °F 81% 29.78 in - South 4.6 mph - N/A   Unknown
8:52 AM 73.0 °F - 66.0 °F 79% 29.83 in - South 20.7 mph 32.2 mph N/A   Unknown
9:52 AM 72.0 °F - 66.0 °F 81% 29.70 in - SE 10.4 mph 19.6 mph N/A   Unknown
10:52 AM 78.1 °F - 66.0 °F 66% 29.68 in - SSE 9.2 mph 17.3 mph N/A   Unknown
11:52 AM 80.1 °F 81.5 °F 63.0 °F 56% 29.67 in - South 17.3 mph 28.8 mph N/A   Unknown
12:52 PM 82.9 °F 84.4 °F 64.0 °F 53% 29.66 in - SSE 17.3 mph 25.3 mph N/A   Unknown
1:52 PM 84.0 °F 85.4 °F 64.0 °F 51% 29.66 in - South 17.3 mph 27.6 mph N/A   Unknown
2:52 PM 84.9 °F 86.1 °F 64.0 °F 49% 29.65 in - South 12.7 mph 21.9 mph N/A   Unknown
3:52 PM 84.0 °F 86.3 °F 66.0 °F 55% 29.63 in - South 12.7 mph 21.9 mph N/A   Unknown
4:52 PM 84.0 °F 86.5 °F 66.9 °F 56% 29.58 in - South 12.7 mph - N/A   Unknown
5:52 PM 84.9 °F 88.2 °F 68.0 °F 57% 29.55 in - SSE 13.8 mph 20.7 mph N/A   Unknown
6:52 PM 84.0 °F 86.5 °F 66.9 °F 56% 29.56 in - South 6.9 mph - N/A   Unknown
7:52 PM 75.0 °F - 64.0 °F 69% 29.58 in - South 17.3 mph 38.0 mph 0.18 in   Unknown
8:06 PM 69.1 °F - 63.0 °F 81% 29.62 in - SSE 15.0 mph 33.4 mph 0.14 in   Unknown
8:52 PM 68.0 °F - 63.0 °F 84% 29.71 in - WSW 23.0 mph 40.3 mph 0.14 in   Unknown
9:52 PM 64.0 °F - 60.1 °F 87% 29.63 in - ESE 8.1 mph - 0.35 in   Unknown
10:52 PM 64.0 °F - 60.1 °F 87% 29.63 in - SSE 10.4 mph 17.3 mph N/A   Unknown
11:52 PM 66.0 °F - 62.1 °F 87% 29.68 in - SSW 8.1 mph 23.0 mph 0.02 in   Unknown